Date,TemperatureHighF,TemperatureAvgF,TemperatureLowF,DewpointHighF,DewpointAvgF,DewpointLowF,HumidityHigh,HumidityAvg,HumidityLow,PressureMaxIn,PressureMinIn,WindSpeedMaxMPH,WindSpeedAvgMPH,GustSpeedMaxMPH,PrecipitationSumIn
2013-1-1,55.9,51.3,49.8,50.3,46.8,44.7,91,85,66,29.94,29.88,64,14,64,0.10
2013-1-2,45.1,43.1,40.6,33.4,31.1,30.1,75,62,56,30.12,30.04,60,6,60,0.00
2013-1-3,46.6,42.6,38.8,33.0,30.8,29.0,72,63,53,30.25,30.11,62,7,62,0.00
2013-1-4,44.4,41.6,38.5,37.8,35.3,31.6,87,79,63,30.31,30.18,62,6,62,0.04
2013-1-5,54.3,44.5,41.5,41.5,37.7,36.6,86,78,61,30.20,30.03,7,2,7,0.00
2013-1-6,49.8,42.3,29.5,41.5,31.7,26.4,91,67,49,30.19,30.11,12,2,12,0.00
2013-1-7,58.8,42.8,30.4,44.7,33.5,25.0,82,70,48,30.13,29.86,11,4,11,0.00
2013-1-8,50.2,49.5,48.2,47.0,46.7,45.8,91,90,89,29.84,29.77,7,3,7,0.02
2013-1-9,65.8,60.0,57.7,62.5,57.7,56.0,94,92,88,29.82,29.66,25,7,25,1.82
2013-1-10,60.1,48.3,43.0,47.3,43.5,41.1,93,85,60,29.87,29.85,12,2,12,0.00
2013-1-11,71.6,68.4,66.7,62.1,60.9,60.0,80,77,72,29.64,29.63,7,2,7,0.00
2013-1-12,77.5,70.7,57.9,68.2,61.9,43.2,87,74,57,29.60,29.47,20,5,20,0.00
2013-1-13,56.1,50.8,45.0,37.3,33.1,31.5,61,51,41,29.94,29.68,68,12,68,0.00
2013-1-14,43.3,40.2,37.2,33.9,29.7,25.4,69,66,62,30.00,29.92,15,9,15,0.00
2013-1-15,43.0,39.1,36.1,35.6,32.7,25.8,89,78,66,30.07,29.90,20,8,26,0.00
2013-1-16,55.2,39.8,24.4,31.9,22.2,18.3,83,53,25,30.18,30.00,20,4,20,0.00
2013-1-17,66.0,49.4,32.2,39.4,32.0,23.5,74,53,32,30.28,30.11,15,4,17,0.00
2013-1-18,64.9,50.1,36.5,39.8,34.2,29.3,76,56,36,30.33,30.12,12,3,12,0.00
2013-1-19,71.2,52.6,37.0,50.9,41.2,33.2,91,68,42,30.13,29.96,15,2,15,0.00
2013-1-20,72.3,54.2,36.3,55.5,44.8,33.0,91,73,48,30.07,29.90,10,1,10,0.00
2013-1-21,76.1,57.4,43.3,59.1,47.6,39.8,91,72,48,30.05,29.94,8,0,8,0.00
2013-1-22,74.1,59.3,47.8,53.8,46.8,42.2,81,65,46,30.12,29.99,14,3,14,0.00
2013-1-23,77.5,60.3,46.8,59.9,52.2,43.7,92,76,52,30.16,30.01,15,1,15,0.00
2013-1-24,80.4,65.8,57.0,64.1,58.5,54.1,93,79,54,30.08,29.92,12,2,12,0.00
2013-1-25,80.4,68.1,58.8,63.8,60.5,55.3,91,78,54,30.09,29.83,13,2,13,0.00
2013-1-26,76.3,64.5,55.7,61.6,57.4,52.0,94,79,57,30.14,30.00,12,3,13,0.00
2013-1-27,79.3,68.6,58.9,66.7,63.1,57.0,96,83,62,30.07,29.92,16,4,17,0.00
2013-1-28,75.7,71.9,68.6,67.9,66.5,65.5,92,83,72,30.02,29.84,17,6,17,0.00
2013-1-29,86.3,72.4,57.5,67.7,56.8,27.6,88,62,30,29.84,29.47,28,5,28,0.00
2013-1-30,61.2,52.6,35.3,27.7,20.4,10.9,67,30,15,30.25,29.80,23,5,25,0.00
2013-1-31,68.8,48.0,28.8,36.9,24.6,16.9,87,48,15,30.33,30.19,9,1,10,0.00
2013-2-1,73.0,58.0,42.8,47.5,39.1,33.3,84,53,26,30.34,30.17,16,2,17,0.00
2013-2-2,76.6,58.7,43.2,56.9,47.9,40.1,93,70,41,30.26,30.14,10,1,10,0.00
2013-2-3,72.0,61.6,52.6,54.6,45.4,37.0,85,57,35,30.31,30.01,13,3,13,0.00
2013-2-4,78.8,64.2,54.5,61.2,56.5,50.8,93,78,47,30.01,29.77,10,1,10,0.00
2013-2-5,82.0,65.7,51.4,59.2,48.3,37.8,97,61,21,29.97,29.85,6,0,6,0.04
2013-2-6,73.8,64.5,59.1,62.6,58.9,55.3,93,83,61,29.97,29.81,11,3,15,0.10
2013-2-7,78.5,65.5,59.2,63.4,58.2,44.3,95,79,49,30.04,29.85,11,1,11,0.00
2013-2-8,71.0,59.9,47.2,48.7,40.4,32.8,79,51,26,30.21,30.03,15,3,17,0.00
2013-2-9,70.3,60.4,51.0,66.8,57.2,40.3,96,89,62,30.07,29.76,19,4,19,0.01
2013-2-10,70.5,66.0,59.8,66.9,47.3,31.0,95,56,27,30.00,29.72,16,3,16,0.01
2013-2-11,60.3,56.3,51.9,50.8,45.9,38.5,94,69,48,30.04,29.91,14,4,14,0.00
2013-2-12,75.5,60.9,51.5,58.6,45.1,22.9,97,65,20,30.03,29.80,19,3,19,0.00
2013-2-13,66.7,51.8,37.6,39.1,33.2,28.9,79,52,27,30.16,30.00,17,2,17,0.00
2013-2-14,68.7,52.0,35.4,42.9,37.2,31.6,89,61,34,30.15,30.00,11,1,13,0.00
2013-2-15,70.2,53.1,38.6,49.0,38.8,28.7,93,62,31,30.38,30.07,18,3,19,0.00
2013-2-16,66.0,49.8,33.8,31.2,26.6,23.2,69,43,22,30.48,30.23,10,1,10,0.00
2013-2-17,71.0,55.0,32.5,53.5,40.0,27.9,88,59,34,30.23,29.98,19,4,20,0.00
2013-2-18,81.0,67.7,59.5,61.8,51.7,29.5,85,60,28,30.04,29.83,12,3,17,0.00
2013-2-19,69.1,58.5,44.9,38.8,32.2,26.7,65,39,22,30.23,30.03,16,4,17,0.00
2013-2-20,69.8,61.8,53.2,65.3,54.0,29.3,89,77,33,30.09,29.63,19,6,20,0.01
2013-2-21,78.6,69.5,52.4,66.6,46.2,24.1,89,51,14,29.84,29.56,14,4,20,0.00
2013-2-22,64.3,56.0,50.4,40.9,34.3,25.2,64,45,31,30.00,29.83,19,4,19,0.00
2013-2-23,72.5,56.3,43.1,42.1,35.8,28.8,65,47,30,30.05,29.85,14,2,14,0.00
2013-2-24,69.1,57.0,40.5,59.5,49.6,35.8,93,77,63,29.90,29.58,15,3,17,0.00
2013-2-25,67.2,58.9,48.6,60.4,34.9,13.4,97,48,14,29.88,29.55,30,8,30,0.01
2013-2-26,66.0,52.3,39.7,30.4,27.5,22.8,61,41,20,29.97,29.85,15,2,15,0.00
2013-2-27,67.6,53.5,38.6,37.7,30.1,23.1,82,45,21,30.22,29.87,19,3,20,0.00
2013-2-28,65.0,49.4,38.7,30.2,26.4,21.0,66,43,20,30.33,30.19,16,2,16,0.00
2013-3-1,73.5,51.7,30.3,31.3,23.9,13.6,81,41,13,30.30,30.09,12,1,14,0.00
2013-3-2,68.5,52.3,40.0,29.8,27.4,24.6,63,41,21,30.43,30.25,17,2,17,0.00
2013-3-3,77.2,55.6,31.6,44.0,33.2,24.6,79,48,19,30.27,29.95,16,3,16,0.00
2013-3-4,87.7,66.7,45.6,54.9,47.7,39.3,96,57,19,29.95,29.69,11,2,13,0.00
2013-3-5,70.0,57.9,44.7,56.1,29.9,14.2,95,41,13,30.35,29.76,24,5,26,0.00
2013-3-6,66.3,49.7,34.8,27.6,19.6,14.2,51,33,15,30.45,30.22,13,2,13,0.00
2013-3-7,73.5,56.6,37.4,55.5,45.6,27.9,87,68,43,30.23,30.07,18,4,18,0.00
2013-3-8,70.3,64.6,61.1,64.7,59.8,53.6,93,84,76,30.12,29.95,20,5,20,0.02
2013-3-9,77.5,68.6,64.0,67.0,63.6,60.1,95,85,67,29.99,29.58,24,7,25,0.01
2013-3-10,70.8,63.3,51.3,64.0,42.8,30.6,94,51,23,30.12,29.58,23,7,23,0.07
2013-3-11,72.6,54.9,39.7,34.3,29.0,21.9,71,42,17,30.19,29.99,22,4,22,0.00
2013-3-12,79.9,58.4,36.1,43.2,31.8,25.8,80,43,15,30.20,30.05,14,2,14,0.00
2013-3-13,78.2,61.2,44.0,49.1,39.7,35.4,88,50,23,30.42,30.20,13,3,13,0.00
2013-3-14,79.5,62.1,41.8,55.6,46.1,36.8,93,61,28,30.38,30.20,16,3,16,0.00
2013-3-15,82.2,65.5,46.4,57.3,49.1,39.3,97,62,23,30.24,29.97,19,4,19,0.00
2013-3-16,85.9,68.7,53.5,61.8,56.4,49.8,97,69,30,30.00,29.71,20,5,21,0.00
2013-3-17,87.2,73.3,65.1,65.1,61.3,56.0,87,69,37,29.80,29.60,15,4,15,0.00
2013-3-18,96.9,75.4,59.4,66.4,52.6,18.5,97,59,6,29.89,29.68,21,4,21,0.00
2013-3-19,81.0,68.9,54.3,65.1,55.5,45.1,81,63,50,29.96,29.78,16,5,18,0.00
2013-3-20,74.6,64.7,56.8,63.9,49.5,37.8,87,61,29,30.20,29.90,26,6,26,0.01
2013-3-21,76.8,64.4,49.7,60.9,53.0,41.5,86,67,53,30.01,29.61,19,4,19,0.00
2013-3-22,89.5,73.2,64.8,67.9,64.1,57.1,96,76,37,29.70,29.58,16,2,16,0.00
2013-3-23,84.8,67.5,56.0,64.0,56.1,50.3,84,68,45,29.75,29.55,15,4,16,0.00
2013-3-24,67.8,57.1,43.8,59.4,32.1,18.9,87,44,18,30.15,29.66,29,8,29,0.00
2013-3-25,63.4,49.3,37.1,25.8,18.8,7.2,62,34,12,30.38,30.15,25,4,25,0.00
2013-3-26,69.5,52.5,35.7,29.8,20.6,14.9,56,32,13,30.50,30.28,12,3,12,0.00
2013-3-27,69.3,55.7,36.3,50.6,39.4,27.8,76,55,41,30.33,30.15,17,4,17,0.00
2013-3-28,71.2,64.8,59.5,58.8,55.8,50.5,83,73,62,30.19,30.10,17,4,17,0.00
2013-3-29,78.9,68.7,56.5,61.0,57.5,54.3,96,70,44,30.16,30.01,16,4,20,0.00
2013-3-30,85.0,73.0,64.5,64.8,61.8,59.4,89,70,44,30.07,29.86,9,4,16,0.00
2013-3-31,83.1,70.4,63.8,65.2,63.1,60.0,93,79,51,29.92,29.80,7,2,26,0.03
2013-4-1,86.7,73.1,62.6,66.4,62.5,59.1,95,73,40,30.01,29.84,8,2,17,0.00
2013-4-2,83.0,71.2,63.7,66.3,64.0,59.4,92,79,55,29.97,29.75,15,4,32,0.39
2013-4-3,60.1,55.5,50.7,57.4,52.5,47.0,94,90,85,30.12,29.71,15,6,21,0.56
2013-4-4,71.2,56.7,48.3,48.5,45.7,42.7,89,69,41,30.21,30.07,10,5,18,0.00
2013-4-5,73.9,56.8,40.8,52.3,45.6,39.2,95,69,40,30.27,30.05,7,1,9,0.00
2013-4-6,81.6,66.7,51.8,58.7,55.3,48.1,93,70,43,30.07,29.83,10,4,16,0.00
2013-4-7,85.8,70.8,61.3,65.3,61.5,58.0,90,74,47,29.89,29.72,10,5,19,0.00
2013-4-8,76.8,71.4,67.6,67.2,65.3,61.8,89,81,71,29.80,29.63,10,5,19,0.00
2013-4-9,89.2,77.0,70.9,70.7,67.9,65.6,86,75,50,29.68,29.52,10,6,19,0.00
2013-4-10,74.7,62.6,49.9,69.4,55.5,45.0,94,78,62,29.89,29.58,16,8,24,0.06
2013-4-11,68.3,56.5,46.6,45.9,42.6,37.6,83,62,41,29.98,29.78,12,3,17,0.03
2013-4-12,82.1,63.7,43.8,52.0,44.3,37.5,93,56,21,29.99,29.81,8,2,13,0.00
2013-4-13,80.3,65.6,52.1,59.9,53.0,44.0,95,67,39,29.94,29.73,8,3,14,0.00
2013-4-14,88.6,70.9,55.8,68.4,61.5,53.5,96,76,39,29.80,29.58,6,2,13,0.00
2013-4-15,91.7,77.8,68.4,68.0,65.5,60.1,91,69,36,29.76,29.64,10,4,16,0.00
2013-4-16,86.5,76.0,65.4,70.6,66.8,62.3,94,74,53,29.84,29.73,10,5,19,0.00
2013-4-17,79.5,76.0,72.7,72.2,71.0,69.7,95,85,72,29.83,29.61,10,5,18,0.00
2013-4-18,76.0,66.3,55.1,71.2,56.1,40.8,91,71,42,30.04,29.60,20,8,26,0.19
2013-4-19,73.1,58.8,45.2,39.2,32.5,26.1,72,41,17,30.28,30.07,14,5,23,0.00
2013-4-20,75.4,58.6,38.2,48.2,35.6,30.0,85,48,19,30.22,29.97,10,3,17,0.00
2013-4-21,82.3,66.8,52.1,59.1,53.0,47.1,85,64,38,30.11,29.95,10,3,15,0.00
2013-4-22,85.8,71.4,57.4,63.2,59.8,55.4,95,69,40,30.09,29.83,8,4,15,0.00
2013-4-23,80.0,70.6,58.0,67.5,61.7,46.6,88,74,55,30.02,29.81,16,5,21,0.00
2013-4-24,64.7,56.5,48.0,45.9,39.5,36.7,76,54,37,30.23,30.03,19,9,25,0.00
2013-4-25,71.0,62.8,57.9,50.6,44.7,40.3,64,52,39,30.30,30.16,8,3,16,0.00
2013-4-26,79.7,69.9,59.9,69.9,63.9,51.8,96,81,67,30.17,29.99,12,3,16,0.01
2013-4-27,81.7,72.8,65.8,72.3,68.1,64.4,95,85,66,30.05,29.88,8,2,22,2.24
2013-4-28,81.5,70.4,60.2,67.4,63.7,59.1,97,80,56,29.99,29.83,7,2,13,0.00
2013-4-29,86.5,73.0,67.0,67.7,65.6,63.2,95,79,47,29.90,29.73,10,2,22,0.00
2013-4-30,83.6,73.2,65.0,68.9,66.1,63.6,96,79,56,29.80,29.67,9,2,11,0.00
2013-5-1,88.7,76.9,67.4,69.9,68.1,65.6,95,75,52,29.87,29.74,7,2,12,0.00
2013-5-2,75.5,60.0,51.0,69.5,51.6,39.0,88,74,61,30.33,29.81,32,10,36,0.38
2013-5-3,70.1,56.9,46.5,45.0,35.4,30.9,84,48,25,30.35,30.08,16,6,24,0.00
2013-5-4,80.0,60.6,41.7,48.5,41.4,37.3,93,57,22,30.09,29.87,6,1,12,0.00
2013-5-5,83.5,65.1,48.2,50.0,45.3,41.0,89,53,22,30.12,29.96,11,3,19,0.00
2013-5-6,76.9,63.9,50.1,56.5,51.1,46.1,89,65,43,30.13,29.97,7,1,10,0.00
2013-5-7,83.2,68.7,51.5,61.3,54.8,49.3,94,65,35,30.07,29.89,10,2,11,0.00
2013-5-8,84.5,72.6,62.2,66.3,63.4,58.8,91,74,50,29.98,29.84,11,4,15,0.00
2013-5-9,81.2,74.7,69.9,72.0,68.8,65.5,89,82,71,29.92,29.78,15,3,18,0.03
2013-5-10,81.2,70.9,62.5,70.4,64.4,59.7,96,81,58,29.99,29.80,12,4,23,0.73
2013-5-11,83.3,72.6,64.2,64.4,60.7,53.9,91,68,47,30.11,29.98,16,6,23,0.00
2013-5-12,83.2,69.5,55.5,57.6,53.4,50.1,84,58,35,30.21,30.08,9,3,19,0.00
2013-5-13,83.2,69.9,53.2,62.9,55.8,50.7,93,64,35,30.25,30.11,8,2,11,0.00
2013-5-14,84.5,72.7,57.7,67.7,62.8,55.5,95,72,53,30.20,29.97,10,3,15,0.00
2013-5-15,87.2,76.5,70.8,72.2,69.6,67.0,93,80,59,30.06,29.79,15,6,24,0.01
2013-5-16,94.8,79.9,71.5,74.6,70.6,67.5,88,75,44,29.83,29.65,11,4,18,0.00
2013-5-17,95.7,81.7,74.2,75.1,72.0,68.8,89,74,44,29.85,29.73,8,4,15,0.00
2013-5-18,94.5,81.0,71.8,72.8,69.0,65.4,93,69,43,29.88,29.76,13,4,23,0.00
2013-5-19,92.5,81.3,73.5,73.5,70.4,66.6,86,70,51,29.82,29.67,13,6,23,0.00
2013-5-20,92.9,81.0,71.3,72.4,70.6,68.9,93,72,50,29.80,29.64,13,5,18,0.00
2013-5-21,90.8,81.4,71.3,73.6,71.7,66.4,92,73,55,29.81,29.64,12,4,20,0.02
2013-5-22,89.6,77.2,64.1,72.0,67.1,61.0,91,71,54,29.88,29.75,9,2,12,0.01
2013-5-23,92.7,81.8,73.8,73.0,71.4,69.8,90,72,48,29.97,29.80,10,3,15,0.00
2013-5-24,79.0,73.5,68.9,73.2,70.2,65.9,95,89,71,30.06,29.95,7,2,12,0.43
2013-5-25,80.0,72.9,68.3,73.1,69.9,67.2,97,90,79,30.11,29.97,10,2,13,1.79
2013-5-26,84.7,77.1,71.1,75.4,71.5,68.6,94,83,65,30.05,29.93,11,3,18,0.00
2013-5-27,88.2,78.5,71.3,75.8,71.7,69.0,94,80,62,29.99,29.80,12,5,18,0.00
2013-5-28,87.4,79.5,73.9,73.9,71.5,70.1,88,77,61,29.88,29.72,14,6,22,0.00
2013-5-29,84.2,78.4,74.0,74.3,72.1,70.3,91,81,68,29.85,29.66,14,6,26,0.00
2013-5-30,88.4,80.8,75.1,75.6,73.2,71.5,89,78,63,29.79,29.71,10,5,15,0.00
2013-5-31,92.4,81.8,74.0,77.2,74.4,71.9,93,79,55,29.84,29.70,11,4,14,0.00
2013-6-1,94.3,83.6,76.7,76.8,74.1,72.6,88,74,52,29.85,29.74,11,4,16,0.00
2013-6-2,88.8,77.2,66.2,74.0,68.9,64.0,94,77,50,30.00,29.85,16,3,24,0.64
2013-6-3,89.8,77.5,65.9,72.5,67.8,63.3,96,74,47,29.95,29.79,4,1,9,0.00
2013-6-4,90.4,78.8,67.2,71.4,69.0,65.6,97,74,44,29.88,29.76,7,2,11,0.00
2013-6-5,91.9,79.5,68.0,72.8,69.4,66.3,96,73,45,29.85,29.69,9,2,14,0.00
2013-6-6,92.8,80.3,68.9,72.8,69.6,65.3,97,72,41,29.88,29.72,10,1,23,0.00
2013-6-7,77.6,72.3,66.4,70.2,66.7,64.2,95,82,66,29.97,29.84,9,3,17,0.18
2013-6-8,89.9,75.8,62.6,74.7,68.6,61.2,96,80,53,29.90,29.75,8,2,14,0.01
2013-6-9,88.4,79.1,73.8,78.0,73.2,69.3,94,82,62,29.91,29.80,7,2,11,0.09
2013-6-10,94.3,81.0,69.7,74.8,71.6,68.2,95,75,47,29.95,29.85,9,1,15,0.00
2013-6-11,91.9,78.0,71.9,74.1,72.4,69.5,97,84,54,29.99,29.92,6,1,17,0.30
2013-6-12,91.1,78.2,72.0,77.4,73.6,69.4,97,87,60,30.01,29.92,21,2,28,0.20
2013-6-13,88.2,77.2,71.7,77.7,74.3,69.3,97,91,69,30.02,29.91,16,1,20,0.71
2013-6-14,86.2,78.1,73.2,78.0,74.6,72.2,98,89,69,29.96,29.86,3,0,8,0.02
2013-6-15,91.0,81.9,74.5,77.4,74.8,71.1,97,80,54,29.96,29.84,6,1,10,0.01
2013-6-16,93.4,82.6,74.9,75.9,74.0,69.9,96,77,47,29.98,29.85,8,3,13,0.00
2013-6-17,93.5,84.0,76.7,76.4,73.8,68.6,91,73,44,29.96,29.80,7,3,12,0.00
2013-6-18,94.0,83.6,75.4,74.3,72.6,68.9,93,71,44,29.96,29.82,8,1,10,0.00
2013-6-19,95.5,84.2,75.3,74.5,71.8,64.6,92,69,37,29.95,29.84,9,2,14,0.00
2013-6-20,94.7,83.7,73.4,75.0,71.8,67.6,93,69,44,30.01,29.90,12,4,15,0.00
2013-6-21,94.9,84.2,76.1,75.1,71.0,62.5,93,68,37,30.04,29.92,10,4,16,0.00
2013-6-22,95.8,84.4,74.3,74.7,70.7,64.8,94,67,38,30.00,29.85,13,5,16,0.00
2013-6-23,94.5,84.2,75.3,74.1,70.4,62.5,93,66,36,29.94,29.83,11,4,16,0.00
2013-6-24,97.4,84.7,75.2,74.9,71.8,66.8,92,68,40,29.98,29.85,13,6,19,0.00
2013-6-25,98.2,85.8,76.3,73.8,70.8,65.1,89,64,34,29.96,29.82,18,6,21,0.00
2013-6-26,100.4,86.4,76.5,74.0,71.9,68.0,88,65,35,29.93,29.82,12,5,18,0.00
2013-6-27,100.7,86.9,75.6,74.0,67.9,56.4,88,59,24,29.98,29.85,9,3,12,0.00
2013-6-28,102.8,87.0,74.8,74.2,68.0,59.8,92,59,25,29.96,29.77,7,2,13,0.00
2013-6-29,109.5,91.3,72.4,72.1,65.2,56.2,89,48,18,29.84,29.67,11,2,18,0.00
2013-6-30,88.3,79.6,70.3,72.1,69.0,62.4,95,71,42,29.95,29.75,10,2,21,0.30
2013-7-1,92.7,80.3,71.9,70.1,60.7,55.0,92,54,31,29.96,29.83,12,4,17,0.00
2013-7-2,96.6,80.1,66.4,61.7,57.0,49.2,77,49,22,30.04,29.91,10,2,18,0.00
2013-7-3,97.9,83.2,68.2,63.8,51.0,42.3,70,37,16,29.99,29.84,9,3,16,0.00
2013-7-4,96.2,81.9,65.4,70.3,61.5,52.2,92,55,24,29.95,29.82,7,1,18,0.00
2013-7-5,97.1,83.5,69.6,72.4,65.0,58.5,89,58,28,29.94,29.78,10,2,12,0.00
2013-7-6,96.9,84.3,69.8,73.2,66.4,58.6,93,59,30,29.90,29.76,11,2,14,0.00
2013-7-7,98.5,82.3,74.1,75.0,72.5,67.7,92,75,37,29.93,29.82,7,1,19,0.44
2013-7-8,88.1,79.3,74.8,75.2,73.5,70.8,93,83,56,30.07,29.93,11,2,14,0.10
2013-7-9,97.3,83.6,72.0,76.2,72.4,67.5,97,72,38,30.11,29.96,11,3,13,0.00
2013-7-10,97.9,84.8,74.0,75.7,71.9,67.2,96,68,38,30.06,29.88,12,2,14,0.00
2013-7-11,98.3,85.5,72.9,75.3,69.5,63.1,94,62,32,29.97,29.83,8,2,12,0.00
2013-7-12,99.8,85.7,71.3,74.9,68.7,61.3,96,62,29,29.93,29.82,8,2,15,0.00
2013-7-13,100.9,86.2,69.9,73.8,65.7,57.5,93,56,25,29.94,29.79,7,2,12,0.00
2013-7-14,98.5,83.5,72.4,72.9,68.5,63.6,88,63,32,29.86,29.78,16,3,18,0.00
2013-7-15,87.7,76.9,71.9,74.2,72.2,69.0,95,86,60,29.96,29.82,7,2,20,0.59
2013-7-16,86.2,77.4,72.8,75.1,72.9,71.4,97,86,67,30.07,29.95,7,2,16,0.02
2013-7-17,87.2,76.1,72.0,73.2,71.6,70.0,96,86,61,30.12,30.05,11,3,20,0.01
2013-7-18,89.9,80.3,72.3,76.3,71.8,67.9,96,77,49,30.12,29.95,8,2,11,0.01
2013-7-19,95.5,82.3,71.9,75.7,71.6,67.5,97,73,44,30.03,29.85,8,1,10,0.00
2013-7-20,94.5,82.7,72.0,74.6,71.1,67.0,96,71,41,29.96,29.80,6,1,12,0.00
2013-7-21,92.9,83.5,75.2,77.8,74.3,72.4,95,75,51,29.92,29.82,8,2,13,0.02
2013-7-22,96.5,85.7,77.1,76.8,74.0,68.1,92,70,40,29.95,29.83,11,4,18,0.00
2013-7-23,98.0,86.3,77.4,75.2,71.9,64.1,87,65,34,29.97,29.82,13,5,16,0.00
2013-7-24,98.8,86.1,76.2,75.2,71.8,64.1,91,66,34,29.94,29.81,6,2,14,0.00
2013-7-25,99.6,85.7,72.4,74.7,71.3,65.3,95,66,35,29.99,29.89,9,2,14,0.00
2013-7-26,98.3,85.5,74.4,75.8,72.7,67.4,95,68,37,29.99,29.82,8,2,16,0.00
2013-7-27,95.3,84.8,75.4,76.6,73.3,69.7,94,70,49,29.95,29.81,11,3,19,0.00
2013-7-28,97.8,85.6,75.7,75.7,71.4,67.9,82,64,40,29.90,29.79,10,3,15,0.00
2013-7-29,99.9,86.9,77.7,75.3,71.5,64.8,86,63,32,29.99,29.88,12,5,19,0.00
2013-7-30,101.0,87.1,77.9,75.4,71.2,61.8,85,63,28,30.05,29.91,10,5,20,0.00
2013-7-31,103.6,87.2,74.9,73.4,67.9,56.8,92,59,23,30.06,29.87,9,2,11,0.00
2013-8-1,103.9,88.0,74.6,74.7,69.5,64.3,94,59,28,30.00,29.83,7,2,12,0.00
2013-8-2,100.8,86.6,71.6,74.9,68.7,63.8,94,59,30,29.95,29.82,9,3,16,0.00
2013-8-3,100.1,87.3,75.6,74.4,71.2,65.9,92,62,34,29.97,29.85,11,4,16,0.00
2013-8-4,99.7,86.9,76.4,76.1,72.1,66.9,92,64,37,30.01,29.86,10,4,15,0.00
2013-8-5,102.4,87.8,75.6,75.0,70.4,62.1,90,60,28,30.00,29.82,10,4,18,0.00
2013-8-6,103.4,88.7,76.4,74.5,70.1,61.5,89,59,26,29.91,29.75,9,4,17,0.00
2013-8-7,103.5,88.4,77.3,74.7,70.4,59.6,88,60,25,29.88,29.73,9,3,16,0.00
2013-8-8,103.6,88.3,78.4,74.1,70.2,54.6,83,59,20,29.86,29.72,9,4,20,0.00
2013-8-9,102.5,87.5,74.2,74.2,68.2,57.0,91,59,23,29.92,29.79,6,1,13,0.00
2013-8-10,104.2,86.2,72.5,73.6,70.8,67.8,86,62,31,30.00,29.87,9,2,18,0.00
2013-8-11,99.8,83.0,74.9,76.2,72.6,66.6,93,74,35,30.03,29.90,10,1,20,0.42
2013-8-12,97.2,84.1,73.0,75.0,71.7,66.9,96,70,38,30.03,29.89,10,2,12,0.01
2013-8-13,100.4,87.3,76.0,75.2,71.1,64.7,92,63,33,30.00,29.83,8,3,11,0.00
2013-8-14,103.4,87.9,75.7,73.9,69.3,59.2,90,59,26,29.96,29.80,11,2,15,0.00
2013-8-15,105.5,86.7,77.3,73.3,69.2,62.4,85,59,25,29.95,29.82,11,2,19,0.00
2013-8-16,97.7,84.4,73.1,75.5,70.3,61.9,92,66,39,29.97,29.84,14,2,18,0.02
2013-8-17,99.2,85.1,71.9,71.8,64.5,54.5,89,56,23,29.99,29.86,15,4,22,0.00
2013-8-18,98.3,83.8,68.8,69.9,62.5,58.8,75,51,29,30.00,29.90,6,1,17,0.00
2013-8-19,97.7,83.6,68.7,67.5,62.6,56.3,83,53,26,30.01,29.86,6,1,10,0.00
2013-8-20,94.2,81.7,70.2,72.8,68.8,63.3,92,67,36,29.98,29.90,10,2,18,0.00
2013-8-21,94.8,80.6,73.1,74.5,70.9,67.4,87,73,46,30.02,29.93,8,2,16,0.09
2013-8-22,96.6,83.8,71.1,75.3,70.7,66.3,95,68,38,30.04,29.85,7,2,11,0.00
2013-8-23,98.7,85.7,73.7,75.5,69.8,64.7,92,62,34,29.98,29.83,8,1,12,0.00
2013-8-24,100.5,87.0,72.9,72.6,69.1,63.6,88,58,32,29.99,29.85,10,3,14,0.00
2013-8-25,99.7,85.5,74.0,72.9,69.1,66.4,81,60,34,30.03,29.92,14,4,20,0.00
2013-8-26,91.9,79.6,74.3,74.2,72.7,69.7,93,80,48,30.05,29.98,14,2,20,0.13
2013-8-27,90.8,80.0,73.3,75.1,72.6,70.0,94,79,50,30.06,30.00,10,2,14,0.06
2013-8-28,96.0,83.5,73.2,75.5,70.9,65.9,97,69,38,30.10,29.97,7,1,12,0.00
2013-8-29,98.9,85.2,72.4,75.7,69.7,64.3,95,64,33,30.09,29.93,6,1,11,0.00
2013-8-30,99.6,86.8,73.1,73.0,69.2,65.0,88,59,33,30.02,29.86,8,2,11,0.00
2013-8-31,99.3,86.2,72.1,73.0,69.4,65.9,89,60,34,29.94,29.80,8,2,11,0.00
2013-9-1,99.1,85.7,71.4,74.8,69.1,63.8,94,61,32,29.91,29.79,8,2,10,0.00
2013-9-2,99.8,85.9,74.3,75.8,70.2,62.6,95,63,30,29.97,29.80,9,2,15,0.00
2013-9-3,100.5,86.1,70.4,72.5,67.5,60.4,89,58,28,30.00,29.85,6,2,10,0.00
2013-9-4,100.7,83.9,75.5,76.2,71.4,67.2,87,67,34,30.02,29.92,9,1,24,0.47
2013-9-5,96.8,81.2,71.7,75.0,71.5,66.4,92,75,37,30.03,29.90,8,1,19,0.10
2013-9-6,96.1,83.1,72.4,76.1,71.8,67.4,96,72,40,30.04,29.88,13,1,19,0.01
2013-9-7,94.3,82.7,73.9,74.9,72.3,69.7,94,72,45,29.98,29.84,8,2,21,0.00
2013-9-8,88.4,79.3,73.0,74.5,72.0,69.5,95,79,57,29.93,29.83,8,1,16,0.00
2013-9-9,90.4,77.7,71.4,74.1,71.1,69.6,95,81,50,29.93,29.85,13,3,30,0.07
2013-9-10,86.9,76.9,72.0,75.9,72.7,70.5,97,87,63,30.00,29.92,9,2,13,0.28
2013-9-11,93.7,80.7,72.6,76.6,71.4,63.7,97,76,38,30.03,29.93,10,3,16,0.04
2013-9-12,95.1,82.5,72.3,75.1,69.6,58.1,95,69,29,30.01,29.85,13,2,13,0.00
2013-9-13,95.6,83.4,70.1,71.2,65.4,57.4,95,60,28,29.93,29.76,14,3,18,0.00
2013-9-14,94.6,82.2,70.2,73.2,67.9,64.6,93,65,38,29.88,29.78,10,2,14,0.00
2013-9-15,93.4,81.7,73.6,75.3,71.3,69.1,92,72,45,29.94,29.86,9,3,17,0.00
2013-9-16,85.9,77.2,73.5,77.4,73.0,70.7,95,87,73,29.99,29.90,18,4,22,0.64
2013-9-17,90.4,79.6,73.5,76.8,73.0,70.6,94,81,58,30.00,29.88,7,3,24,0.00
2013-9-18,90.4,79.3,73.7,76.9,73.5,70.8,96,83,52,29.96,29.84,8,2,15,0.11
2013-9-19,92.6,80.2,74.8,77.5,74.7,72.9,96,84,53,29.89,29.75,7,1,16,0.15
2013-9-20,84.5,76.5,71.5,78.3,74.1,69.0,96,92,80,29.81,29.69,15,4,27,0.61
2013-9-21,87.5,76.1,66.3,69.2,64.6,55.7,91,70,40,29.87,29.76,22,9,27,0.00
2013-9-22,87.2,72.9,61.4,58.0,53.5,47.0,75,53,26,29.86,29.73,14,4,22,0.00
2013-9-23,89.4,72.1,55.9,61.4,55.4,49.7,91,62,27,29.80,29.71,7,1,8,0.00
2013-9-24,98.6,78.4,62.3,65.7,61.9,59.4,91,62,29,29.88,29.77,5,1,17,0.00
2013-9-25,94.5,80.7,66.6,67.4,62.3,55.9,90,58,32,29.85,29.73,7,1,12,0.00
2013-9-26,92.2,80.3,67.9,73.6,68.6,58.8,96,70,47,29.85,29.74,9,3,18,0.00
2013-9-27,88.9,80.9,74.1,78.4,74.4,71.4,95,81,61,29.85,29.75,12,4,20,0.18
2013-9-28,91.3,81.3,75.0,78.8,75.8,73.2,95,84,56,29.91,29.79,9,3,19,0.25
2013-9-29,79.0,73.5,69.0,74.2,69.6,67.0,97,88,74,29.99,29.88,12,4,22,0.74
2013-9-30,89.7,75.7,62.7,68.2,64.2,58.4,98,72,36,29.91,29.76,5,1,11,0.00
2013-10-1,90.7,79.7,71.7,75.8,73.1,66.5,97,82,54,29.86,29.76,5,2,12,0.00
2013-10-2,89.9,81.4,75.7,74.5,73.0,69.7,94,77,52,29.90,29.79,8,4,12,0.00
2013-10-3,89.9,81.0,73.6,74.9,72.2,69.7,95,76,53,29.88,29.77,11,4,16,0.00
2013-10-4,90.0,79.9,70.0,74.0,71.3,68.2,97,77,52,29.87,29.77,11,4,19,0.00
2013-10-5,91.2,78.4,65.3,73.3,67.8,50.8,97,72,47,29.99,29.82,19,4,27,0.00
2013-10-6,82.2,66.8,54.4,54.6,49.3,41.7,91,59,25,30.11,29.98,18,6,26,0.13
2013-10-7,87.5,66.2,48.4,53.4,48.2,40.2,95,61,19,30.14,30.01,9,2,14,0.00
2013-10-8,83.9,67.3,49.9,53.9,50.5,47.2,95,60,28,30.06,29.94,5,1,12,0.00
2013-10-9,84.7,69.5,53.5,64.3,58.5,51.5,96,71,43,30.03,29.90,9,2,14,0.00
2013-10-10,86.9,79.0,65.0,68.5,65.7,61.4,91,65,49,29.99,29.83,14,3,14,0.00
2013-10-11,90.4,80.1,72.4,75.6,72.5,67.6,89,78,57,29.88,29.76,16,4,16,0.00
2013-10-12,91.7,82.2,75.1,76.0,74.3,70.7,95,78,54,29.95,29.84,18,3,18,0.00
2013-10-13,78.2,73.2,65.8,75.0,71.5,64.3,97,94,89,30.11,29.95,16,3,31,3.46
2013-10-14,85.2,78.5,72.7,75.0,72.5,70.5,96,82,63,30.02,29.85,19,3,19,0.01
2013-10-15,85.8,75.7,68.0,73.2,70.6,62.8,96,85,58,29.93,29.80,20,2,20,0.00
2013-10-16,67.8,60.0,56.4,62.7,57.8,54.9,96,92,84,30.04,29.85,22,7,22,0.52
2013-10-17,74.0,63.4,53.9,59.9,54.8,50.7,94,76,48,30.10,29.94,16,3,16,0.00
2013-10-18,73.4,67.0,59.2,66.8,63.1,54.8,96,88,78,29.96,29.82,11,2,11,0.02
2013-10-19,71.8,60.9,51.1,65.1,50.1,41.4,95,71,35,30.15,29.93,30,6,30,0.00
2013-10-20,74.2,59.5,44.8,57.7,49.7,43.4,96,73,41,30.07,29.88,14,1,14,0.01
2013-10-21,82.4,69.3,59.7,70.1,63.7,57.0,95,83,61,30.00,29.84,18,1,18,0.00
2013-10-22,78.3,65.2,52.8,60.5,49.6,39.3,89,62,27,30.12,29.99,20,6,20,0.00
2013-10-23,80.5,62.4,45.7,53.5,48.2,42.3,95,66,27,30.16,30.06,11,1,11,0.00
2013-10-24,80.3,64.6,47.6,59.5,52.9,45.6,96,69,37,30.20,30.09,12,1,12,0.00
2013-10-25,80.7,67.4,54.0,64.6,59.6,52.0,95,78,51,30.27,30.14,15,2,15,0.00
2013-10-26,82.0,71.1,63.3,67.9,64.3,61.8,96,81,55,30.17,30.01,16,2,16,0.00
2013-10-27,81.6,70.6,64.3,70.4,66.4,62.8,97,87,64,30.06,29.93,18,1,18,0.00
2013-10-28,84.7,74.9,68.1,71.4,68.0,65.3,96,80,57,30.03,29.90,20,4,20,0.00
2013-10-29,85.8,76.6,71.3,72.6,69.8,68.4,92,80,58,30.03,29.89,19,5,19,0.00
2013-10-30,84.3,78.5,74.6,75.3,73.5,71.2,95,85,70,29.97,29.73,20,4,20,0.01
2013-10-31,83.9,74.4,58.4,75.2,63.2,42.8,97,73,26,29.84,29.73,24,4,24,1.20
2013-11-1,85.4,67.4,51.0,65.3,51.7,40.8,94,63,25,30.02,29.78,26,3,27,0.00
2013-11-2,76.3,64.4,51.3,48.1,43.1,36.2,81,49,25,30.26,30.02,24,6,24,0.00
2013-11-3,72.0,59.0,44.7,56.5,45.0,34.2,90,64,27,30.18,29.98,14,2,15,0.00
2013-11-4,71.2,65.1,59.8,65.0,59.8,55.8,94,83,72,30.02,29.90,7,1,11,0.00
2013-11-5,80.4,72.2,65.0,71.2,67.7,63.5,98,86,65,29.97,29.84,14,2,14,0.00
2013-11-6,81.8,67.7,56.2,72.5,61.4,46.3,96,80,63,30.27,29.91,28,6,28,0.24
2013-11-7,64.3,56.2,49.7,46.2,40.2,33.0,69,56,34,30.42,30.26,20,7,26,0.00
2013-11-8,65.8,58.1,51.3,52.8,45.0,37.1,79,63,37,30.35,30.14,15,2,15,0.00
2013-11-9,70.9,62.6,55.2,61.7,55.6,49.7,89,78,63,30.16,30.07,11,1,11,0.04
2013-11-10,68.5,65.1,61.9,61.6,58.8,56.1,87,80,69,30.25,30.12,12,2,12,0.00
2013-11-11,79.6,66.7,60.0,58.2,56.2,53.6,88,70,45,30.23,30.10,11,1,11,0.00
2013-11-12,68.1,58.4,47.3,57.1,49.0,29.5,86,71,51,30.58,30.19,34,9,34,0.00
2013-11-13,58.7,45.8,37.4,34.1,28.5,22.9,81,53,28,30.62,30.38,22,5,22,0.00
2013-11-14,62.6,48.9,33.9,49.1,37.0,28.4,86,66,33,30.38,30.03,14,1,14,0.00
2013-11-15,77.3,63.6,48.7,60.9,54.6,45.8,92,74,51,30.03,29.82,14,1,14,0.00
2013-11-16,81.2,72.1,63.5,72.1,66.7,60.3,96,84,66,29.88,29.71,22,4,22,0.00
2013-11-17,85.5,73.6,69.1,71.6,68.1,65.5,91,83,60,29.88,29.74,7,1,9,0.00
2013-11-18,77.3,70.2,63.1,68.9,65.0,60.9,95,84,66,30.04,29.88,19,4,19,0.01
2013-11-19,70.0,64.0,56.3,65.3,53.1,46.3,92,68,50,30.09,29.95,19,3,19,0.00
2013-11-20,73.3,67.0,59.5,69.1,61.1,54.2,92,81,70,29.97,29.83,9,1,9,0.00
2013-11-21,82.5,75.3,71.7,72.3,70.8,69.2,93,86,67,29.99,29.87,14,2,14,0.13
2013-11-22,75.4,49.3,37.7,72.4,46.5,35.0,94,90,76,30.35,29.98,34,10,34,0.40
2013-11-23,43.8,41.0,38.5,41.7,38.0,35.9,94,89,82,30.43,30.32,27,10,27,0.04
2013-11-24,44.3,40.7,37.0,41.8,36.7,34.1,93,86,74,30.45,30.29,26,8,26,0.41
2013-11-25,43.4,39.7,36.8,39.5,37.3,34.9,94,91,85,30.32,30.06,20,6,20,0.27
2013-11-26,51.1,44.1,40.3,39.6,35.7,31.5,87,73,54,30.36,30.08,31,7,31,0.00
2013-11-27,54.3,42.2,32.8,31.9,-4.2,-42.9,87,35,1,30.47,30.33,20,4,24,0.00
2013-11-28,57.7,42.9,34.0,-29.4,-39.0,-44.7,1,1,1,30.44,30.32,7,0,7,0.00
2013-11-29,63.7,49.9,36.9,-25.4,-34.4,-42.9,1,1,1,30.47,30.32,8,2,14,0.00
2013-11-30,69.4,58.9,46.5,-21.7,-28.5,-36.7,1,1,1,30.36,30.14,12,1,12,0.00
2013-12-1,73.7,61.4,50.9,-19.0,-26.9,-33.7,1,1,1,30.16,29.94,9,1,11,0.00
2013-12-2,78.8,64.1,54.4,-15.7,-25.2,-31.6,1,1,1,29.94,29.66,13,1,13,0.00
2013-12-3,85.7,64.1,47.9,57.6,-19.6,-35.7,89,7,1,29.70,29.57,9,0,9,0.01
2013-12-4,77.3,64.9,53.5,67.8,61.6,51.8,98,90,70,29.75,29.64,13,1,13,0.00
2013-12-5,69.3,51.4,37.6,68.7,46.6,30.4,98,84,70,30.03,29.74,30,10,30,0.01
2013-12-6,43.4,36.4,33.0,35.7,31.7,27.5,94,83,71,30.40,30.00,25,10,26,0.07
2013-12-7,35.2,32.1,29.5,29.2,25.9,22.9,89,77,70,30.44,30.27,21,7,21,0.00
2013-12-8,47.7,39.6,31.7,43.5,35.2,28.8,94,84,73,30.28,30.02,9,1,11,0.00
2013-12-9,45.2,42.3,38.5,43.5,40.5,34.6,96,93,87,30.36,30.05,28,7,28,0.06
2013-12-10,51.2,39.2,31.6,34.8,28.4,23.6,89,68,35,30.50,30.33,25,4,25,0.00
2013-12-11,58.5,44.9,32.1,35.6,31.7,27.6,88,62,35,30.51,30.32,14,2,14,0.00
2013-12-12,52.6,45.3,37.2,39.6,35.2,31.3,80,68,52,30.58,30.30,16,3,16,0.00
2013-12-13,51.8,48.5,47.0,50.4,43.2,38.2,96,82,66,30.30,29.88,7,0,9,0.03
2013-12-14,60.5,51.3,44.2,50.6,42.0,33.0,95,73,48,30.31,29.89,25,5,25,0.00
2013-12-15,63.9,45.8,29.3,34.4,30.9,25.8,91,60,26,30.40,30.26,16,1,16,0.00
2013-12-16,66.3,46.3,29.0,36.7,32.0,26.3,92,64,26,30.32,30.19,12,1,12,0.00
2013-12-17,71.5,51.1,33.7,49.2,38.5,30.8,93,67,29,30.32,30.20,11,1,11,0.00
2013-12-18,71.7,55.1,38.0,55.1,45.7,35.2,93,73,45,30.27,30.03,16,2,16,0.00
2013-12-19,77.3,66.1,57.5,62.6,58.7,52.8,91,78,55,30.03,29.75,18,4,22,0.00
2013-12-20,74.7,70.3,65.4,68.0,64.8,62.0,90,83,72,29.80,29.55,24,4,24,0.00
2013-12-21,74.0,65.4,48.2,68.3,54.5,34.4,91,72,26,29.80,29.48,32,4,32,0.24
2013-12-22,64.1,52.0,40.9,45.4,39.7,32.1,83,64,45,30.34,29.79,21,5,21,0.00
2013-12-23,60.9,43.8,32.4,34.2,29.1,24.7,84,60,27,30.52,30.34,13,2,13,0.00
2013-12-24,59.7,45.4,29.9,40.7,29.4,19.8,89,59,23,30.52,30.26,16,2,16,0.00
2013-12-25,57.2,48.9,38.5,48.2,43.6,35.6,93,82,69,30.35,30.21,13,3,13,0.00
2013-12-26,53.1,48.5,46.0,48.0,41.2,37.6,91,76,65,30.40,30.30,21,4,21,0.02
2013-12-27,55.7,50.0,46.5,48.0,45.4,43.8,92,85,69,30.41,30.30,13,2,13,0.28
2013-12-28,56.5,50.0,43.6,46.1,42.9,38.8,92,77,56,30.30,30.01,8,0,8,0.00
2013-12-29,64.2,49.4,37.9,51.5,42.9,33.1,94,79,59,30.23,29.96,26,4,26,0.01
2013-12-30,43.1,39.9,37.9,34.3,30.3,26.3,84,68,54,30.39,30.20,22,5,22,0.00
2013-12-31,49.9,42.8,36.8,34.9,31.1,27.4,82,64,43,30.45,30.24,13,1,13,0.00
2014-1-1,59.2,50.0,39.2,49.5,42.3,33.7,87,75,62,30.24,30.00,11,1,11,0.00
2014-1-2,55.2,45.7,32.1,47.9,31.2,24.4,89,59,33,30.44,30.06,28,8,37,0.00